Погода в Батурине

Россия / Томская область     56°15′41″N   84°58′22″E
темп.,
°C
ветер,
м/с
пор.,
м/с
влажн.,
%
обл.,
%
осадки,
мм/ч
давл.,
гПа
погр.,
м
26 февраля, пт
пт2601:00−22ююз3997100 0.2 1020709
04:00−21юз4994100 0.1 1020978
07:00−22юз4993100 0.2 1022990
10:00−22юз5990100 0.1 1023988
13:00−22юз5989100 0.2 10251078
16:00−23зюз5887100 0.1 10271141
19:00−25юз4992100 0.2 1030686
22:00−27юз41094100 0.0 1032480
27 февраля, сб
сб2701:00−27юз3994100 0.1 1033548
04:00−27юз3896100 0.1 1034496
07:00−27юз3895100 0.2 1035552
10:00−26юз3794100 0.1 1035556
13:00−24юз3691100 0.1 1036659
16:00−22юз3690100 0.1 1036694
19:00−24юз2597100 0.1 1037133
22:00−28ююз259996 0.0 103899
28 февраля, вс
вс2801:00−30ююз239987 0.0 103949
04:00−31ююз239981 0.0 103957
07:00−31ю239978 0.0 104055
10:00−28ю369640 0.0 1040190
13:00−22ю259337 0.0 1038316
16:00−18ююв258867 0.0 1035424
19:00−21юв239468 0.0 103438
22:00−22вюв249695 0.0 103294
1 марта, пн
пн101:00−18вюв279497 0.0 1029192
04:00−15вюв3895100 0.2 1025318
07:00−12вюв41094100 0.9 1021488
10:00−9вюв4994100 0.6 1017494
13:00−6юв4894100 1.8 1013675
16:00−4юв4895100 1.6 1010596
19:00−4всв2497100 4.9 1009212
22:00−9с2297100 0.3 101056
2 марта, вт
вт201:00−11зсз1197100 0.4 101129
04:00−11зюз0197100 0.4 101121
07:00−10зюз0197100 0.8 101121
10:00−9з119699 0.1 1010123
13:00−6з1391100 0.3 1010404
16:00−5сз1290100 0.1 1009412
19:00−8ссз2296100 0.2 100936
22:00−10ссз2596100 0.1 1010158